AV194 Weather Reports


Display with metric or nautical units.
time (UTC)temp
F
wind
direction
speed
MPH
gust
MPH
rain 1hr
in
rain 24hr
in
rain mn
in
humidity
%
barometer
mb
20260510192541 71 171 3.0 8.0 0.00 0.20 0.00 61 1009.4
20260510192038 71 204 0.0 6.0 0.00 0.20 0.00 58 1009.4
20260510191546 72 270 2.0 6.0 0.00 0.20 0.00 58 1009.6
20260510191038 73 195 3.0 6.0 0.00 0.20 0.00 60 1009.6
20260510190538 72 206 2.0 6.0 0.00 0.20 0.00 58 1009.7
20260510190035 70 277 1.0 5.0 0.00 0.24 0.00 62 1009.6
20260510185535 70 186 1.0 5.0 0.00 0.24 0.00 61 1009.6
20260510185034 70 324 0.0 4.0 0.00 0.24 0.00 60 1009.5
20260510184534 70 284 0.0 7.0 0.00 0.24 0.00 63 1009.4
20260510184034 71 158 4.0 7.0 0.00 0.24 0.00 59 1009.5
20260510183535 72 205 2.0 7.0 0.00 0.24 0.00 58 1009.5
20260510183044 71 240 2.0 7.0 0.00 0.24 0.00 58 1009.7
20260510182532 70 190 1.0 7.0 0.00 0.24 0.00 62 1009.8
20260510182034 71 240 2.0 6.0 0.00 0.24 0.00 59 1009.8
20260510181533 73 195 1.0 5.0 0.00 0.24 0.00 59 1009.9
20260510181035 73 309 2.0 8.0 0.00 0.24 0.00 64 1010.0
20260510180532 73 173 3.0 8.0 0.00 0.24 0.00 60 1010.0
20260510180029 72 247 4.0 8.0 0.00 0.34 0.00 60 1010.1
20260510175527 72 178 3.0 8.0 0.00 0.34 0.00 67 1010.1
20260510175026 69 118 1.0 5.0 0.00 0.34 0.00 69 1010.2
20260510174526 68 191 1.0 4.0 0.00 0.34 0.00 66 1010.3
20260510174027 68 234 0.0 5.0 0.00 0.34 0.00 68 1010.2
20260510173526 68 301 1.0 5.0 0.00 0.34 0.00 66 1010.3
20260510173028 69 189 1.0 9.0 0.00 0.34 0.00 67 1010.4
20260510172524 70 183 2.0 9.0 0.00 0.34 0.00 64 1010.4
20260510172024 71 174 2.0 7.0 0.00 0.34 0.00 65 1010.4
20260510171522 70 192 3.0 7.0 0.00 0.34 0.00 67 1010.7
20260510171022 70 146 4.0 7.0 0.00 0.34 0.00 66 1010.7
20260510170520 69 284 0.0 6.0 0.00 0.34 0.00 67 1010.7
20260510170020 69 223 2.0 5.0 0.00 0.41 0.00 67 1010.8
20260510165519 69 317 0.0 4.0 0.00 0.41 0.00 68 1010.9
20260510165020 69 323 0.0 5.0 0.00 0.41 0.00 70 1011.0
20260510164523 69 168 2.0 5.0 0.00 0.41 0.00 76 1011.0
20260510164018 68 93 1.0 5.0 0.00 0.41 0.00 75 1011.1
20260510163518 67 22 0.0 6.0 0.00 0.41 0.00 76 1011.0
20260510163020 67 167 1.0 6.0 0.00 0.41 0.00 70 1011.1
20260510162522 68 190 1.0 4.0 0.00 0.41 0.00 71 1011.1
20260510162015 68 203 1.0 6.0 0.00 0.41 0.00 73 1011.1
20260510161515 67 115 0.0 6.0 0.00 0.41 0.00 77 1011.2
20260510161014 66 198 2.0 6.0 0.00 0.41 0.00 76 1011.2
20260510160512 66 121 1.0 6.0 0.00 0.41 0.00 77 1011.3
20260510160012 65 191 0.0 4.0 0.00 0.45 0.00 82 1011.3
20260510155509 63 99 1.0 5.0 0.00 0.45 0.00 82 1011.3
20260510155008 62 70 2.0 5.0 0.00 0.45 0.00 80 1011.4
20260510154507 62 207 2.0 5.0 0.00 0.45 0.00 80 1011.5
20260510154008 62 202 2.0 4.0 0.00 0.45 0.00 83 1011.5
20260510153506 62 184 1.0 5.0 0.00 0.45 0.00 82 1011.5
20260510153008 62 218 1.0 4.0 0.00 0.45 0.00 81 1011.6
20260510152506 62 136 1.0 4.0 0.00 0.45 0.00 83 1011.6
20260510152004 61 105 0.0 4.0 0.00 0.45 0.00 83 1011.5
20260510151504 61 330 1.0 3.0 0.00 0.45 0.00 83 1011.5
20260510151003 60 246 0.0 4.0 0.00 0.45 0.00 84 1011.5
20260510150501 60 340 1.0 4.0 0.00 0.45 0.00 84 1011.6
20260510150101 60 91 0.0 5.0 0.00 0.48 0.00 84 1011.7
20260510145559 60 213 1.0 5.0 0.00 0.48 0.00 88 1011.7
20260510145058 59 288 2.0 5.0 0.00 0.48 0.00 87 1011.8
20260510144556 59 209 1.0 4.0 0.00 0.48 0.00 88 1011.8
20260510144055 58 201 0.0 4.0 0.00 0.48 0.00 89 1011.8
20260510143554 58 138 1.0 4.0 0.00 0.48 0.00 91 1011.9
20260510143053 57 190 0.0 2.0 0.00 0.48 0.00 91 1011.8
20260510142556 57 240 0.0 5.0 0.00 0.48 0.00 92 1012.0
20260510142057 57 341 1.0 5.0 0.00 0.48 0.00 92 1012.0
20260510141600 57 242 1.0 4.0 0.00 0.48 0.00 95 1012.0
20260510141052 57 332 0.0 4.0 0.00 0.48 0.00 95 1011.9
20260510140549 56 342 0.0 4.0 0.00 0.48 0.00 96 1011.9
20260510140052 56 224 1.0 4.0 0.00 0.51 0.00 97 1012.1
20260510135547 55 186 0.0 2.0 0.00 0.51 0.00 97 1012.0
20260510135046 55 186 0.0 2.0 0.00 0.51 0.00 97 1012.1
20260510134551 55 187 0.0 4.0 0.00 0.51 0.00 97 1012.1
20260510134047 54 233 1.0 3.0 0.00 0.51 0.00 97 1011.9
20260510133544 54 205 0.0 2.0 0.00 0.51 0.00 97 1011.9
20260510133100 54 183 0.0 2.0 0.00 0.51 0.00 97 1011.8
20260510132543 54 183 0.0 2.0 0.00 0.51 0.00 97 1011.8
20260510132042 54 252 0.0 2.0 0.00 0.51 0.00 97 1011.8
20260510131545 54 178 0.0 2.0 0.00 0.51 0.00 97 1011.9
20260510131040 54 184 0.0 2.0 0.00 0.51 0.00 97 1011.9
20260510130540 54 185 0.0 2.0 0.00 0.51 0.00 97 1011.8
20260510130041 54 178 1.0 2.0 0.00 0.51 0.00 98 1011.9
20260510125539 54 188 0.0 1.0 0.00 0.51 0.00 97 1011.9
20260510125040 53 188 0.0 2.0 0.00 0.51 0.00 97 1012.0
20260510124541 53 175 1.0 2.0 0.00 0.51 0.00 97 1012.0
20260510124038 53 154 0.0 0.0 0.00 0.51 0.00 98 1012.0
20260510123537 53 166 0.0 1.0 0.00 0.51 0.00 97 1012.0
20260510123049 53 277 0.0 1.0 0.00 0.51 0.00 97 1012.0
20260510122536 53 266 0.0 1.0 0.00 0.51 0.00 97 1012.0
20260510122039 52 250 0.0 1.0 0.00 0.51 0.00 98 1011.9
20260510121535 52 187 0.0 2.0 0.00 0.51 0.00 97 1011.9
20260510121035 52 211 0.0 2.0 0.00 0.51 0.00 98 1011.8
20260510120533 52 210 0.0 0.0 0.00 0.51 0.00 97 1011.9
20260510120033 52 228 0.0 0.0 0.00 0.51 0.00 98 1011.9
20260510115533 51 228 0.0 1.0 0.00 0.51 0.00 97 1011.9
20260510115030 51 228 0.0 1.0 0.00 0.51 0.00 97 1011.9
20260510114528 51 238 0.0 2.0 0.00 0.51 0.00 97 1011.9
20260510114032 51 180 0.0 2.0 0.00 0.51 0.00 97 1011.8
20260510113526 51 179 0.0 4.0 0.00 0.51 0.00 97 1011.9
20260510113026 51 204 0.0 4.0 0.00 0.51 0.00 97 1011.8
20260510112525 51 199 1.0 3.0 0.00 0.51 0.00 97 1011.8
20260510112027 51 189 0.0 1.0 0.00 0.51 0.00 97 1011.7
20260510111525 51 191 0.0 2.0 0.00 0.51 0.00 97 1011.6
20260510111022 51 192 0.0 4.0 0.00 0.51 0.00 97 1011.7
20260510110522 51 238 1.0 3.0 0.00 0.51 0.00 97 1011.8
20260510110021 50 227 0.0 2.0 0.00 0.51 0.00 97 1011.5
20260510105521 50 205 0.0 2.0 0.00 0.51 0.00 97 1011.3
20260510105020 50 222 0.0 2.0 0.00 0.51 0.00 97 1011.4
20260510104519 50 220 1.0 2.0 0.00 0.51 0.00 97 1011.3
20260510104018 50 187 1.0 2.0 0.00 0.51 0.00 97 1011.5
20260510103517 50 236 0.0 2.0 0.00 0.51 0.00 97 1011.4
20260510103019 50 242 0.0 2.0 0.00 0.51 0.00 97 1011.2
20260510102517 50 209 0.0 2.0 0.00 0.51 0.00 97 1010.9
20260510102016 50 222 0.0 2.0 0.00 0.51 0.00 97 1011.0
20260510101514 49 223 0.0 1.0 0.00 0.51 0.00 97 1011.0
20260510101013 49 247 0.0 2.0 0.00 0.51 0.00 97 1011.0
20260510100514 49 250 0.0 2.0 0.00 0.51 0.00 97 1010.9
20260510100010 49 259 0.0 0.0 0.00 0.51 0.00 97 1010.9
20260510095510 49 259 0.0 0.0 0.00 0.51 0.00 97 1011.0
20260510095010 49 52 0.0 0.0 0.00 0.51 0.00 97 1010.9
20260510094511 49 52 0.0 0.0 0.00 0.51 0.00 97 1010.7
20260510094009 49 52 0.0 1.0 0.00 0.51 0.00 97 1010.9
20260510093509 49 52 0.0 1.0 0.00 0.51 0.00 97 1010.8
20260510093009 49 321 0.0 0.0 0.00 0.51 0.00 97 1011.0
20260510092508 49 321 0.0 0.0 0.00 0.51 0.00 97 1011.0
20260510092008 49 321 0.0 1.0 0.00 0.51 0.00 97 1010.9
20260510091511 49 321 0.0 1.0 0.00 0.51 0.00 97 1010.9
20260510091007 49 5 0.0 0.0 0.00 0.51 0.00 97 1010.7
20260510090508 49 5 0.0 0.0 0.00 0.51 0.00 97 1010.8
20260510090007 49 5 0.0 0.0 0.00 0.51 0.00 97 1010.9
20260510085507 48 5 0.0 0.0 0.00 0.51 0.00 97 1010.9
20260510085005 48 5 0.0 0.0 0.00 0.51 0.00 97 1011.0
20260510084505 48 360 0.0 0.0 0.00 0.51 0.00 97 1011.1
20260510084005 48 49 0.0 0.0 0.00 0.51 0.00 97 1011.0
20260510083505 48 49 0.0 1.0 0.00 0.51 0.00 97 1011.0
20260510083005 48 49 0.0 1.0 0.00 0.51 0.00 97 1011.0
20260510082507 48 100 0.0 1.0 0.00 0.51 0.00 97 1010.9
20260510082006 48 121 0.0 1.0 0.00 0.51 0.00 97 1010.8
20260510081509 48 125 0.0 0.0 0.00 0.51 0.00 97 1010.8
20260510081005 48 125 0.0 0.0 0.00 0.51 0.00 97 1010.7
20260510080503 48 125 0.0 0.0 0.00 0.51 0.00 97 1010.8
20260510080103 48 125 0.0 0.0 0.00 0.51 0.00 97 1010.8
20260510075502 48 125 0.0 0.0 0.00 0.51 0.00 97 1010.9
20260510075002 48 125 0.0 0.0 0.00 0.51 0.00 97 1010.8
20260510074500 48 125 0.0 1.0 0.00 0.51 0.00 97 1010.8
20260510074100 48 125 0.0 1.0 0.00 0.51 0.00 97 1010.9
20260510073559 48 72 0.0 0.0 0.00 0.51 0.00 97 1010.9
20260510073114 48 72 0.0 0.0 0.00 0.51 0.00 97 1010.8
20260510072559 48 72 0.0 1.0 0.00 0.51 0.00 97 1010.7
20260510072059 48 72 0.0 1.0 0.00 0.51 0.00 97 1010.5
20260510071606 48 72 0.0 1.0 0.00 0.51 0.00 97 1010.4
20260510071056 48 72 0.0 2.0 0.00 0.51 0.00 97 1010.5
20260510070556 48 286 0.0 2.0 0.00 0.51 0.00 97 1010.6
20260510070056 48 279 0.0 0.0 0.00 0.51 0.00 97 1010.5
20260510065555 48 279 0.0 0.0 0.00 0.51 0.00 97 1010.6
20260510065054 48 279 0.0 0.0 0.00 0.51 0.00 97 1010.6
20260510064601 48 279 0.0 1.0 0.00 0.51 0.00 97 1010.7
20260510064054 48 279 0.0 2.0 0.00 0.51 0.00 97 1010.7
20260510063554 48 279 1.0 2.0 0.00 0.51 0.00 97 1010.7
20260510063058 48 5 0.0 1.0 0.00 0.51 0.00 97 1010.5
20260510062553 48 5 0.0 1.0 0.00 0.51 0.00 97 1010.6
20260510062053 48 5 0.0 0.0 0.00 0.51 0.00 97 1010.7
20260510061555 48 5 0.0 1.0 0.00 0.51 0.00 97 1010.8
20260510061052 48 5 0.0 1.0 0.00 0.51 0.00 97 1010.8
20260510060552 48 18 0.0 1.0 0.00 0.51 0.00 97 1010.8
20260510060052 48 34 0.0 0.0 0.00 0.51 0.00 97 1010.7
20260510055550 48 34 0.0 0.0 0.00 0.51 0.00 97 1010.7
20260510055050 48 33 0.0 0.0 0.00 0.51 0.00 97 1010.8
20260510054550 48 33 0.0 0.0 0.00 0.51 0.00 97 1010.9
20260510054048 48 33 0.0 1.0 0.00 0.51 0.00 97 1010.9
20260510053548 48 33 0.0 1.0 0.00 0.51 0.00 97 1011.1
20260510053048 48 33 0.0 1.0 0.00 0.51 0.00 97 1011.1
20260510052548 48 32 0.0 1.0 0.00 0.51 0.00 96 1011.2
20260510052048 48 32 0.0 1.0 0.00 0.51 0.00 96 1011.3
20260510051550 48 32 0.0 1.0 0.00 0.51 0.00 97 1011.4
20260510051046 48 40 0.0 0.0 0.00 0.51 0.00 96 1011.2
20260510050546 48 40 0.0 1.0 0.00 0.51 0.00 97 1011.2
20260510050046 48 40 0.0 2.0 0.00 0.51 0.00 96 1011.2
20260510045546 48 88 0.0 2.0 0.00 0.51 0.00 97 1011.1
20260510045049 48 95 0.0 0.0 0.00 0.51 0.00 96 1011.1
20260510044550 48 95 0.0 0.0 0.00 0.51 0.00 96 1011.3
20260510044048 48 95 0.0 0.0 0.00 0.51 0.00 96 1011.4
20260510043545 48 95 0.0 0.0 0.00 0.51 0.00 96 1011.4
20260510043053 48 95 0.0 0.0 0.00 0.51 0.00 96 1011.4
20260510042544 48 95 0.0 0.0 0.00 0.51 0.00 96 1011.3
20260510042043 48 95 0.0 0.0 0.00 0.51 0.00 96 1011.3
20260510041548 48 94 0.0 0.0 0.00 0.51 0.00 96 1011.3
20260510041041 47 96 0.0 1.0 0.00 0.51 0.00 96 1011.2
20260510040541 48 96 0.0 1.0 0.00 0.51 0.00 96 1011.1
20260510040041 48 84 0.0 1.0 0.00 0.51 0.51 96 1011.2
20260510035539 48 84 0.0 1.0 0.00 0.51 0.51 96 1011.1
20260510035040 47 78 0.0 1.0 0.00 0.51 0.51 96 1011.4
20260510034538 47 78 0.0 0.0 0.00 0.51 0.51 96 1011.7
20260510034038 47 78 0.0 1.0 0.00 0.51 0.51 96 1011.7
20260510033537 47 78 0.0 1.0 0.00 0.51 0.51 96 1011.6
20260510033039 47 78 0.0 1.0 0.00 0.51 0.51 96 1011.7
20260510032541 47 78 0.0 1.0 0.00 0.51 0.51 96 1011.5
20260510032037 47 78 0.0 1.0 0.00 0.51 0.51 96 1011.7
20260510031542 47 78 0.0 1.0 0.00 0.51 0.51 96 1011.7
20260510031036 47 81 0.0 2.0 0.00 0.51 0.51 96 1011.7
20260510030535 47 32 0.0 1.0 0.00 0.51 0.51 96 1011.7
20260510030036 47 31 0.0 1.0 0.00 0.51 0.51 96 1011.8
20260510025536 47 27 0.0 0.0 0.00 0.51 0.51 96 1011.9
20260510025035 47 27 0.0 0.0 0.00 0.51 0.51 96 1011.9
20260510024536 47 26 0.0 0.0 0.00 0.51 0.51 96 1012.0
20260510024035 47 26 0.0 0.0 0.00 0.51 0.51 96 1012.0
20260510023539 47 26 0.0 0.0 0.00 0.51 0.51 96 1011.9
20260510023035 47 26 0.0 0.0 0.00 0.51 0.51 96 1011.9
20260510022535 47 26 0.0 0.0 0.00 0.51 0.51 96 1012.0
20260510022035 47 26 0.0 1.0 0.00 0.51 0.51 96 1012.0
20260510021538 47 27 0.0 2.0 0.00 0.51 0.51 96 1012.1
20260510021033 47 50 0.0 2.0 0.00 0.51 0.51 96 1012.2
20260510020534 47 42 0.0 0.0 0.00 0.51 0.51 96 1012.3
20260510020034 47 42 0.0 0.0 0.00 0.51 0.51 96 1012.2
20260510015533 47 42 0.0 0.0 0.00 0.51 0.51 96 1012.2
20260510015036 47 42 0.0 0.0 0.00 0.51 0.51 96 1012.3
20260510014535 47 42 0.0 1.0 0.00 0.51 0.51 96 1012.2
20260510014035 47 42 0.0 2.0 0.01 0.51 0.51 96 1012.2
20260510013533 47 42 0.0 2.0 0.01 0.51 0.51 96 1012.2
20260510013033 47 73 0.0 1.0 0.01 0.51 0.51 96 1012.1
20260510012532 47 73 0.0 2.0 0.01 0.51 0.51 96 1012.1
20260510012031 47 73 0.0 2.0 0.01 0.51 0.51 96 1012.1
20260510011532 47 97 0.0 2.0 0.01 0.51 0.51 96 1012.1
20260510011030 47 94 0.0 2.0 0.01 0.51 0.51 96 1012.0
20260510010531 47 94 0.0 2.0 0.01 0.51 0.51 96 1012.1
20260510010031 47 22 0.0 1.0 0.01 0.51 0.51 96 1012.2
20260510005531 47 22 0.0 4.0 0.01 0.51 0.51 96 1012.1
20260510005030 47 22 0.0 4.0 0.01 0.51 0.51 96 1012.1
20260510004530 47 33 0.0 3.0 0.01 0.51 0.51 96 1012.2
20260510004030 47 35 0.0 2.0 0.00 0.50 0.50 96 1012.1
20260510003530 47 74 0.0 0.0 0.00 0.50 0.50 96 1012.1
20260510003031 47 74 0.0 1.0 0.00 0.50 0.50 96 1012.1
20260510002529 47 74 0.0 1.0 0.00 0.50 0.50 96 1012.2
20260510002030 47 74 0.0 1.0 0.00 0.50 0.50 96 1012.2
20260510001530 47 74 0.0 1.0 0.00 0.50 0.50 96 1012.2
20260510001029 47 74 0.0 2.0 0.00 0.50 0.50 96 1012.1
20260510000529 47 74 0.0 2.0 0.00 0.50 0.50 96 1012.1
20260510000028 47 102 0.0 1.0 0.00 0.50 0.50 96 1012.1
20260509235528 47 103 0.0 1.0 0.01 0.50 0.50 96 1012.1
20260509235028 47 103 0.0 1.0 0.01 0.50 0.50 96 1012.0
20260509234534 47 101 0.0 0.0 0.01 0.50 0.50 96 1011.9
20260509234029 47 101 0.0 0.0 0.01 0.50 0.50 96 1011.8
20260509233529 47 101 0.0 1.0 0.02 0.50 0.50 96 1011.9
20260509233028 47 101 0.0 2.0 0.02 0.50 0.50 96 1011.8
20260509232528 47 355 0.0 2.0 0.02 0.50 0.50 96 1011.8
20260509232028 47 216 0.0 1.0 0.03 0.50 0.50 96 1011.6
20260509231528 47 216 0.0 1.0 0.03 0.50 0.50 96 1011.5
20260509231027 47 211 0.0 2.0 0.04 0.50 0.50 96 1011.6
20260509230527 47 122 0.0 4.0 0.04 0.50 0.50 96 1011.5
20260509230027 47 271 1.0 4.0 0.04 0.50 0.50 95 1011.5
20260509225527 47 95 0.0 4.0 0.04 0.49 0.49 95 1011.4
20260509225030 47 113 0.0 4.0 0.04 0.49 0.49 95 1011.4
20260509224528 47 84 1.0 4.0 0.04 0.49 0.49 95 1011.4
20260509224026 47 103 1.0 4.0 0.05 0.49 0.49 95 1011.4
20260509223525 47 130 0.0 2.0 0.05 0.48 0.48 95 1011.5
20260509223029 47 95 0.0 2.0 0.05 0.48 0.48 95 1011.5
20260509222526 47 113 1.0 4.0 0.06 0.48 0.48 95 1011.5
20260509222023 47 108 0.0 4.0 0.05 0.47 0.47 95 1011.7
20260509221524 47 90 0.0 2.0 0.06 0.47 0.47 95 1011.8
20260509221023 47 64 1.0 5.0 0.06 0.46 0.46 95 1011.8
20260509220523 48 102 1.0 5.0 0.06 0.46 0.46 95 1011.7
20260509220021 48 84 1.0 4.0 0.07 0.46 0.46 95 1011.9
20260509215521 48 126 0.0 5.0 0.07 0.45 0.45 95 1012.1
20260509215020 48 69 0.0 5.0 0.08 0.45 0.45 95 1012.1
20260509214520 48 74 0.0 4.0 0.08 0.44 0.44 95 1012.2
20260509214020 48 60 0.0 4.0 0.09 0.44 0.44 95 1012.3
20260509213521 48 69 0.0 4.0 0.10 0.43 0.43 95 1012.3
20260509213020 48 58 0.0 2.0 0.11 0.43 0.43 95 1012.4
20260509212519 48 51 0.0 2.0 0.11 0.42 0.42 95 1012.5
20260509212019 48 47 0.0 2.0 0.11 0.42 0.42 95 1012.5
20260509211519 48 94 0.0 2.0 0.10 0.41 0.41 95 1012.5
20260509211019 48 100 1.0 2.0 0.09 0.40 0.40 95 1012.4
20260509210518 48 45 0.0 2.0 0.09 0.40 0.40 95 1012.6
20260509210028 48 33 0.0 2.0 0.08 0.39 0.39 95 1012.7
20260509205518 48 39 0.0 1.0 0.07 0.38 0.38 95 1012.5
20260509205018 48 39 0.0 2.0 0.06 0.37 0.37 95 1012.5
20260509204518 48 103 0.0 2.0 0.05 0.36 0.36 95 1012.5
20260509204018 48 319 0.0 2.0 0.04 0.35 0.35 95 1012.6
20260509203518 48 97 0.0 4.0 0.02 0.33 0.33 95 1012.5
20260509203018 48 20 0.0 4.0 0.01 0.32 0.32 95 1012.5
20260509202517 48 57 1.0 4.0 0.00 0.31 0.31 95 1012.2
20260509202021 48 101 0.0 4.0 0.00 0.31 0.31 95 1012.4
20260509201516 48 90 0.0 2.0 0.00 0.31 0.31 95 1012.4
20260509201015 48 82 0.0 2.0 0.00 0.31 0.31 95 1012.4
20260509200517 48 76 0.0 4.0 0.00 0.31 0.31 95 1012.3
20260509200015 48 41 0.0 4.0 0.00 0.31 0.31 95 1012.2
20260509195520 48 77 0.0 4.0 0.00 0.31 0.31 95 1012.2
20260509195015 48 78 0.0 4.0 0.00 0.31 0.31 94 1012.3
20260509194515 48 11 1.0 4.0 0.00 0.31 0.31 95 1012.2
20260509194014 48 355 1.0 5.0 0.00 0.31 0.31 95 1012.0
20260509193513 48 72 0.0 5.0 0.00 0.31 0.31 95 1012.0
20260509193014 47 108 1.0 5.0 0.01 0.31 0.31 94 1012.2